Time,TemperatureF,DewpointF,PressureIn,WindDirection,WindDirectionDegrees,WindSpeedMPH,WindSpeedGustMPH,Humidity,HourlyPrecipIn,Conditions,Clouds,dailyrainin,SoftwareType,DateUTC
2013-04-19 00:00:00,71.9,56.3,29.87,North,360,2.0,12.0,58,0.00,,SKC,0.00,VWS V14.00,2013-04-19 04:00:00,
2013-04-19 00:01:00,71.9,56.8,29.87,North,360,2.0,10.0,59,0.00,,SKC,0.00,VWS V14.00,2013-04-19 04:01:00,
2013-04-19 00:06:00,71.9,56.8,29.87,North,360,2.0,10.0,59,0.00,,SKC,0.00,VWS V14.00,2013-04-19 04:06:00,
2013-04-19 00:11:00,71.8,59.0,29.84,North,360,10.0,17.0,64,0.00,,SKC,0.00,VWS V14.00,2013-04-19 04:11:00,
2013-04-19 00:16:00,71.8,59.4,29.84,North,360,5.0,17.0,65,0.00,,SKC,0.00,VWS V14.00,2013-04-19 04:16:00,
2013-04-19 00:21:00,71.6,59.2,29.84,North,360,3.0,14.0,65,0.00,,SKC,0.00,VWS V14.00,2013-04-19 04:21:00,
2013-04-19 00:26:00,71.6,59.2,29.84,North,360,4.0,14.0,65,0.00,,SKC,0.00,VWS V14.00,2013-04-19 04:26:00,
2013-04-19 00:31:00,71.4,59.5,29.84,North,360,7.0,18.0,66,0.00,,SKC,0.00,VWS V14.00,2013-04-19 04:31:00,
2013-04-19 00:36:00,71.4,59.5,29.84,North,360,12.0,19.0,66,0.00,,SKC,0.00,VWS V14.00,2013-04-19 04:36:00,
2013-04-19 00:41:00,71.4,59.5,29.83,North,360,12.0,18.0,66,0.00,,SKC,0.00,VWS V14.00,2013-04-19 04:41:00,
2013-04-19 00:46:00,71.4,59.9,29.83,North,360,8.0,18.0,67,0.00,,SKC,0.00,VWS V14.00,2013-04-19 04:46:00,
2013-04-19 00:51:00,71.4,59.9,29.83,North,360,10.0,10.0,67,0.00,,SKC,0.00,VWS V14.00,2013-04-19 04:51:00,
2013-04-19 00:56:00,71.4,59.9,29.83,North,360,10.0,10.0,67,0.00,,SKC,0.00,VWS V14.00,2013-04-19 04:56:00,
2013-04-19 01:01:00,71.4,59.9,29.83,North,360,10.0,10.0,67,0.00,,SKC,0.00,VWS V14.00,2013-04-19 05:01:00,
2013-04-19 01:06:00,71.4,59.9,29.83,North,360,10.0,10.0,67,0.00,,SKC,0.00,VWS V14.00,2013-04-19 05:06:00,
2013-04-19 01:10:00,71.8,59.4,29.84,North,360,13.0,17.0,65,0.00,,SKC,0.00,VWS V14.00,2013-04-19 05:10:00,
2013-04-19 01:11:00,71.4,59.9,29.82,North,360,10.0,10.0,67,0.00,,SKC,0.00,VWS V14.00,2013-04-19 05:11:00,
2013-04-19 01:16:00,71.4,59.9,29.82,North,360,10.0,10.0,67,0.00,,SKC,0.00,VWS V14.00,2013-04-19 05:16:00,
2013-04-19 01:20:00,71.6,59.2,29.84,North,360,7.0,14.0,65,0.00,,SKC,0.00,VWS V14.00,2013-04-19 05:20:00,
2013-04-19 01:21:00,71.4,59.9,29.82,North,360,10.0,10.0,67,0.00,,SKC,0.00,VWS V14.00,2013-04-19 05:21:00,
2013-04-19 01:26:00,71.4,59.9,29.83,North,360,10.0,10.0,67,0.00,,SKC,0.00,VWS V14.00,2013-04-19 05:26:00,
2013-04-19 01:30:00,71.4,59.5,29.83,North,360,10.0,19.0,66,0.00,,SKC,0.00,VWS V14.00,2013-04-19 05:30:00,
2013-04-19 01:31:00,71.4,59.9,29.83,North,360,10.0,10.0,67,0.00,,SKC,0.00,VWS V14.00,2013-04-19 05:31:00,
2013-04-19 01:36:00,71.4,59.9,29.83,North,360,10.0,10.0,67,0.00,,SKC,0.00,VWS V14.00,2013-04-19 05:36:00,
2013-04-19 01:40:00,71.4,59.9,29.83,North,360,8.0,18.0,67,0.00,,SKC,0.00,VWS V14.00,2013-04-19 05:40:00,
2013-04-19 01:41:00,71.4,59.9,29.82,North,360,10.0,10.0,67,0.00,,SKC,0.00,VWS V14.00,2013-04-19 05:41:00,
2013-04-19 01:46:00,71.4,59.9,29.82,North,360,10.0,10.0,67,0.00,,SKC,0.00,VWS V14.00,2013-04-19 05:46:00,
2013-04-19 01:50:00,71.4,59.9,29.83,North,360,10.0,10.0,67,0.00,,SKC,0.00,VWS V14.00,2013-04-19 05:50:00,
2013-04-19 01:51:00,71.4,59.9,29.82,North,360,10.0,10.0,67,0.00,,SKC,0.00,VWS V14.00,2013-04-19 05:51:00,
2013-04-19 01:56:00,71.4,59.9,29.82,North,360,10.0,10.0,67,0.00,,SKC,0.00,VWS V14.00,2013-04-19 05:56:00,
2013-04-19 02:01:00,71.4,59.9,29.82,North,360,10.0,10.0,67,0.00,,SKC,0.00,VWS V14.00,2013-04-19 06:01:00,
2013-04-19 02:06:00,71.4,59.9,29.82,North,360,10.0,10.0,67,0.00,,SKC,0.00,VWS V14.00,2013-04-19 06:06:00,
2013-04-19 02:10:00,71.4,59.9,29.82,North,360,10.0,10.0,67,0.00,,SKC,0.00,VWS V14.00,2013-04-19 06:10:00,
2013-04-19 02:11:00,70.6,60.3,29.80,North,360,5.0,15.0,70,0.00,,SKC,0.00,VWS V14.00,2013-04-19 06:11:00,
2013-04-19 02:16:00,70.6,60.8,29.80,North,360,3.0,15.0,71,0.00,,SKC,0.00,VWS V14.00,2013-04-19 06:16:00,
2013-04-19 02:20:00,71.4,59.9,29.83,North,360,10.0,10.0,67,0.00,,SKC,0.00,VWS V14.00,2013-04-19 06:20:00,
2013-04-19 02:21:00,70.6,60.8,29.80,North,360,4.0,22.0,71,0.00,,SKC,0.00,VWS V14.00,2013-04-19 06:21:00,
2013-04-19 02:26:00,70.4,60.6,29.81,North,360,6.0,22.0,71,0.00,,SKC,0.00,VWS V14.00,2013-04-19 06:26:00,
2013-04-19 02:30:00,71.4,59.9,29.82,North,360,10.0,10.0,67,0.00,,SKC,0.00,VWS V14.00,2013-04-19 06:30:00,
2013-04-19 02:31:00,70.4,60.6,29.81,North,360,5.0,12.0,71,0.00,,SKC,0.00,VWS V14.00,2013-04-19 06:31:00,
2013-04-19 02:36:00,70.4,60.6,29.81,North,360,5.0,12.0,71,0.00,,SKC,0.00,VWS V14.00,2013-04-19 06:36:00,
2013-04-19 02:40:00,71.4,59.9,29.82,North,360,10.0,10.0,67,0.00,,SKC,0.00,VWS V14.00,2013-04-19 06:40:00,
2013-04-19 02:41:00,70.4,60.6,29.81,North,360,4.0,15.0,71,0.00,,SKC,0.00,VWS V14.00,2013-04-19 06:41:00,
2013-04-19 02:46:00,70.4,60.6,29.81,North,360,4.0,15.0,71,0.00,,SKC,0.00,VWS V14.00,2013-04-19 06:46:00,
2013-04-19 02:50:00,71.4,59.9,29.82,North,360,10.0,10.0,67,0.00,,SKC,0.00,VWS V14.00,2013-04-19 06:50:00,
2013-04-19 02:51:00,70.4,60.6,29.81,North,360,4.0,4.0,71,0.00,,SKC,0.00,VWS V14.00,2013-04-19 06:51:00,
2013-04-19 02:56:00,70.4,60.6,29.84,North,360,4.0,4.0,71,0.00,,SKC,0.00,VWS V14.00,2013-04-19 06:56:00,
2013-04-19 03:00:00,71.4,59.9,29.80,North,360,0.0,10.0,67,0.00,,SKC,0.00,VWS V14.00,2013-04-19 07:00:00,
2013-04-19 03:01:00,70.4,60.6,29.84,North,360,4.0,4.0,71,0.00,,SKC,0.00,VWS V14.00,2013-04-19 07:01:00,
2013-04-19 03:06:00,70.4,60.6,29.84,North,360,4.0,4.0,71,0.00,,SKC,0.00,VWS V14.00,2013-04-19 07:06:00,
2013-04-19 03:10:00,70.6,60.8,29.80,North,360,21.0,21.0,71,0.00,,SKC,0.00,VWS V14.00,2013-04-19 07:10:00,
2013-04-19 03:11:00,70.4,60.6,29.83,North,360,4.0,4.0,71,0.00,,SKC,0.00,VWS V14.00,2013-04-19 07:11:00,
2013-04-19 03:16:00,70.4,60.6,29.83,North,360,4.0,4.0,71,0.00,,SKC,0.00,VWS V14.00,2013-04-19 07:16:00,
2013-04-19 03:20:00,70.4,60.6,29.81,North,360,11.0,22.0,71,0.00,,SKC,0.00,VWS V14.00,2013-04-19 07:20:00,
2013-04-19 03:21:00,70.4,60.6,29.83,North,360,4.0,4.0,71,0.00,,SKC,0.00,VWS V14.00,2013-04-19 07:21:00,
2013-04-19 03:26:00,70.4,60.6,29.83,North,360,4.0,4.0,71,0.00,,SKC,0.00,VWS V14.00,2013-04-19 07:26:00,
2013-04-19 03:30:00,70.4,60.6,29.81,North,360,7.0,12.0,71,0.00,,SKC,0.00,VWS V14.00,2013-04-19 07:30:00,
2013-04-19 03:31:00,70.4,60.6,29.83,North,360,4.0,4.0,71,0.00,,SKC,0.00,VWS V14.00,2013-04-19 07:31:00,
2013-04-19 03:36:00,70.4,60.6,29.83,North,360,4.0,4.0,71,0.00,,SKC,0.00,VWS V14.00,2013-04-19 07:36:00,
2013-04-19 03:40:00,70.4,60.6,29.81,North,360,4.0,15.0,71,0.00,,SKC,0.00,VWS V14.00,2013-04-19 07:40:00,
2013-04-19 03:41:00,70.4,60.6,29.83,North,360,4.0,4.0,71,0.00,,SKC,0.00,VWS V14.00,2013-04-19 07:41:00,
2013-04-19 03:46:00,70.1,60.3,29.83,North,360,7.0,17.0,71,0.00,,SKC,0.00,VWS V14.00,2013-04-19 07:46:00,
2013-04-19 03:50:00,70.4,60.6,29.84,North,360,4.0,4.0,71,0.00,,SKC,0.00,VWS V14.00,2013-04-19 07:50:00,
2013-04-19 03:51:00,70.1,60.3,29.83,North,360,9.0,9.0,71,0.00,,SKC,0.00,VWS V14.00,2013-04-19 07:51:00,
2013-04-19 03:56:00,70.1,60.3,29.78,North,360,9.0,9.0,71,0.00,,SKC,0.00,VWS V14.00,2013-04-19 07:56:00,
2013-04-19 04:00:00,70.4,60.6,29.83,North,360,4.0,4.0,71,0.00,,SKC,0.00,VWS V14.00,2013-04-19 08:00:00,
2013-04-19 04:01:00,69.9,60.1,29.78,North,360,6.0,14.0,71,0.00,,SKC,0.00,VWS V14.00,2013-04-19 08:01:00,
2013-04-19 04:06:00,69.8,59.6,29.78,North,360,15.0,17.0,70,0.00,,SKC,0.00,VWS V14.00,2013-04-19 08:06:00,
2013-04-19 04:10:00,70.4,60.6,29.83,North,360,4.0,4.0,71,0.00,,SKC,0.00,VWS V14.00,2013-04-19 08:10:00,
2013-04-19 04:11:00,69.8,59.6,29.77,North,360,15.0,16.0,70,0.00,,SKC,0.00,VWS V14.00,2013-04-19 08:11:00,
2013-04-19 04:16:00,69.8,59.6,29.77,North,360,15.0,16.0,70,0.00,,SKC,0.00,VWS V14.00,2013-04-19 08:16:00,
2013-04-19 04:20:00,70.4,60.6,29.83,North,360,4.0,4.0,71,0.00,,SKC,0.00,VWS V14.00,2013-04-19 08:20:00,
2013-04-19 04:21:00,69.8,59.6,29.77,North,360,15.0,15.0,70,0.00,,SKC,0.00,VWS V14.00,2013-04-19 08:21:00,
2013-04-19 04:26:00,69.8,59.6,29.74,North,360,15.0,15.0,70,0.00,,SKC,0.00,VWS V14.00,2013-04-19 08:26:00,
2013-04-19 04:30:00,70.4,60.6,29.83,North,360,4.0,4.0,71,0.00,,SKC,0.00,VWS V14.00,2013-04-19 08:30:00,
2013-04-19 04:31:00,69.8,59.6,29.74,North,360,15.0,15.0,70,0.00,,SKC,0.00,VWS V14.00,2013-04-19 08:31:00,
2013-04-19 04:36:00,69.8,59.6,29.74,North,360,15.0,15.0,70,0.00,,SKC,0.00,VWS V14.00,2013-04-19 08:36:00,
2013-04-19 04:40:00,70.1,60.3,29.83,North,360,9.0,17.0,71,0.00,,SKC,0.00,VWS V14.00,2013-04-19 08:40:00,
2013-04-19 04:41:00,69.8,59.6,29.74,North,360,15.0,15.0,70,0.00,,SKC,0.00,VWS V14.00,2013-04-19 08:41:00,
2013-04-19 04:46:00,69.8,59.6,29.74,North,360,15.0,15.0,70,0.00,,SKC,0.00,VWS V14.00,2013-04-19 08:46:00,
2013-04-19 04:50:00,70.1,60.3,29.78,North,360,6.0,9.0,71,0.00,,SKC,0.00,VWS V14.00,2013-04-19 08:50:00,
2013-04-19 04:51:00,69.8,59.6,29.74,North,360,15.0,15.0,70,0.00,,SKC,0.00,VWS V14.00,2013-04-19 08:51:00,
2013-04-19 04:56:00,69.6,59.0,29.74,North,360,7.0,17.0,69,0.00,,SKC,0.00,VWS V14.00,2013-04-19 08:56:00,
2013-04-19 05:00:00,69.8,59.6,29.77,North,360,12.0,17.0,70,0.00,,SKC,0.00,VWS V14.00,2013-04-19 09:00:00,
2013-04-19 05:01:00,69.6,59.0,29.74,North,360,10.0,16.0,69,0.00,,SKC,0.00,VWS V14.00,2013-04-19 09:01:00,
2013-04-19 05:06:00,69.6,58.6,29.74,North,360,7.0,17.0,68,0.00,,SKC,0.00,VWS V14.00,2013-04-19 09:06:00,
2013-04-19 05:10:00,69.8,59.6,29.77,North,360,15.0,16.0,70,0.00,,SKC,0.00,VWS V14.00,2013-04-19 09:10:00,
2013-04-19 05:11:00,69.6,59.0,29.74,North,360,4.0,14.0,69,0.00,,SKC,0.00,VWS V14.00,2013-04-19 09:11:00,
2013-04-19 05:16:00,69.8,58.8,29.74,North,360,12.0,15.0,68,0.00,,SKC,0.00,VWS V14.00,2013-04-19 09:16:00,
2013-04-19 05:20:00,69.8,59.6,29.74,North,360,15.0,15.0,70,0.00,,SKC,0.00,VWS V14.00,2013-04-19 09:20:00,
2013-04-19 05:21:00,69.8,58.8,29.74,North,360,12.0,12.0,68,0.00,,SKC,0.00,VWS V14.00,2013-04-19 09:21:00,
2013-04-19 05:26:00,69.8,58.8,29.74,North,360,12.0,12.0,68,0.00,,SKC,0.00,VWS V14.00,2013-04-19 09:26:00,
2013-04-19 05:30:00,69.8,59.6,29.74,North,360,15.0,15.0,70,0.00,,SKC,0.00,VWS V14.00,2013-04-19 09:30:00,
2013-04-19 05:31:00,69.8,58.8,29.74,North,360,12.0,12.0,68,0.00,,SKC,0.00,VWS V14.00,2013-04-19 09:31:00,
2013-04-19 05:36:00,69.8,58.8,29.74,North,360,12.0,12.0,68,0.00,,SKC,0.00,VWS V14.00,2013-04-19 09:36:00,
2013-04-19 05:40:00,69.8,59.6,29.74,North,360,15.0,15.0,70,0.00,,SKC,0.00,VWS V14.00,2013-04-19 09:40:00,
2013-04-19 05:41:00,69.8,58.8,29.73,North,360,12.0,12.0,68,0.00,,SKC,0.00,VWS V14.00,2013-04-19 09:41:00,
2013-04-19 05:46:00,69.8,58.8,29.73,North,360,12.0,12.0,68,0.00,,SKC,0.00,VWS V14.00,2013-04-19 09:46:00,
2013-04-19 05:50:00,69.6,59.0,29.74,North,360,5.0,17.0,69,0.00,,SKC,0.00,VWS V14.00,2013-04-19 09:50:00,
2013-04-19 05:51:00,69.8,58.8,29.73,North,360,12.0,12.0,68,0.00,,SKC,0.00,VWS V14.00,2013-04-19 09:51:00,
2013-04-19 05:55:00,69.8,58.8,29.74,North,360,12.0,12.0,68,0.00,,SKC,0.00,VWS V14.00,2013-04-19 09:55:00,
2013-04-19 06:00:00,69.8,58.8,29.74,North,360,12.0,12.0,68,0.00,,SKC,0.00,VWS V14.00,2013-04-19 10:00:00,
2013-04-19 06:05:00,69.8,58.8,29.74,North,360,12.0,12.0,68,0.00,,SKC,0.00,VWS V14.00,2013-04-19 10:05:00,
2013-04-19 06:10:00,69.8,58.8,29.74,North,360,12.0,12.0,68,0.00,,SKC,0.00,VWS V14.00,2013-04-19 10:10:00,
2013-04-19 06:15:00,69.8,58.8,29.74,North,360,12.0,12.0,68,0.00,,SKC,0.00,VWS V14.00,2013-04-19 10:15:00,
2013-04-19 06:20:00,69.8,58.8,29.74,North,360,12.0,12.0,68,0.00,,SKC,0.00,VWS V14.00,2013-04-19 10:20:00,
2013-04-19 06:25:00,69.8,58.8,29.80,North,360,12.0,12.0,68,0.00,,SKC,0.00,VWS V14.00,2013-04-19 10:25:00,
2013-04-19 06:30:00,69.8,58.8,29.80,North,360,12.0,12.0,68,0.00,,SKC,0.00,VWS V14.00,2013-04-19 10:30:00,
2013-04-19 06:35:00,69.8,58.8,29.80,North,360,12.0,12.0,68,0.00,,SKC,0.00,VWS V14.00,2013-04-19 10:35:00,
2013-04-19 06:40:00,69.8,58.8,29.81,North,360,12.0,12.0,68,0.00,,SKC,0.00,VWS V14.00,2013-04-19 10:40:00,
2013-04-19 06:45:00,69.8,58.8,29.81,North,360,12.0,12.0,68,0.00,,SKC,0.00,VWS V14.00,2013-04-19 10:45:00,
2013-04-19 06:50:00,69.8,58.8,29.81,North,360,12.0,12.0,68,0.00,,SKC,0.00,VWS V14.00,2013-04-19 10:50:00,
2013-04-19 06:55:00,69.8,58.8,29.81,North,360,12.0,12.0,68,0.00,,SKC,0.00,VWS V14.00,2013-04-19 10:55:00,
2013-04-19 07:00:00,69.8,58.8,29.81,North,360,12.0,12.0,68,0.00,,SKC,0.00,VWS V14.00,2013-04-19 11:00:00,
2013-04-19 07:05:00,69.8,59.2,29.81,North,360,5.0,14.0,69,0.00,,SKC,0.00,VWS V14.00,2013-04-19 11:05:00,
2013-04-19 07:10:00,69.8,59.2,29.77,North,360,15.0,20.0,69,0.00,,SKC,0.00,VWS V14.00,2013-04-19 11:10:00,
2013-04-19 07:15:00,69.8,59.2,29.77,North,360,7.0,22.0,69,0.00,,SKC,0.00,VWS V14.00,2013-04-19 11:15:00,
2013-04-19 07:20:00,69.8,59.2,29.77,North,360,9.0,15.0,69,0.00,,SKC,0.00,VWS V14.00,2013-04-19 11:20:00,
2013-04-19 07:25:00,69.8,59.2,29.77,North,360,16.0,16.0,69,0.00,,SKC,0.00,VWS V14.00,2013-04-19 11:25:00,
2013-04-19 07:30:00,69.8,59.2,29.77,North,360,11.0,15.0,69,0.00,,SKC,0.00,VWS V14.00,2013-04-19 11:30:00,
2013-04-19 07:35:00,69.6,59.0,29.77,North,360,7.0,17.0,69,0.00,,SKC,0.00,VWS V14.00,2013-04-19 11:35:00,
2013-04-19 07:40:00,69.6,59.4,29.77,North,360,4.0,19.0,70,0.00,,SKC,0.00,VWS V14.00,2013-04-19 11:40:00,
2013-04-19 07:45:00,69.6,59.4,29.77,North,360,4.0,19.0,70,0.00,,SKC,0.00,VWS V14.00,2013-04-19 11:45:00,
2013-04-19 07:50:00,69.6,59.4,29.77,North,360,4.0,4.0,70,0.00,,SKC,0.00,VWS V14.00,2013-04-19 11:50:00,
2013-04-19 07:55:00,69.6,59.4,29.77,North,360,4.0,4.0,70,0.00,,SKC,0.00,VWS V14.00,2013-04-19 11:55:00,
2013-04-19 08:00:00,69.6,59.4,29.77,North,360,4.0,4.0,70,0.00,,SKC,0.00,VWS V14.00,2013-04-19 12:00:00,
2013-04-19 08:05:00,69.6,59.4,29.77,North,360,4.0,4.0,70,0.00,,SKC,0.00,VWS V14.00,2013-04-19 12:05:00,
2013-04-19 08:10:00,69.6,59.4,29.77,North,360,4.0,4.0,70,0.00,,SKC,0.00,VWS V14.00,2013-04-19 12:10:00,
2013-04-19 08:15:00,69.6,59.4,29.77,North,360,4.0,4.0,70,0.00,,SKC,0.00,VWS V14.00,2013-04-19 12:15:00,
2013-04-19 08:20:00,69.6,59.4,29.77,North,360,4.0,4.0,70,0.00,,SKC,0.00,VWS V14.00,2013-04-19 12:20:00,
2013-04-19 08:25:00,69.6,59.4,29.76,North,360,4.0,4.0,70,0.00,,SKC,0.00,VWS V14.00,2013-04-19 12:25:00,
2013-04-19 08:30:00,69.6,59.4,29.76,North,360,4.0,4.0,70,0.00,,SKC,0.00,VWS V14.00,2013-04-19 12:30:00,
2013-04-19 08:35:00,69.6,59.4,29.76,North,360,4.0,4.0,70,0.00,,SKC,0.00,VWS V14.00,2013-04-19 12:35:00,
2013-04-19 08:40:00,69.6,59.4,29.76,North,360,4.0,4.0,70,0.00,,SKC,0.00,VWS V14.00,2013-04-19 12:40:00,
2013-04-19 08:45:00,69.6,59.4,29.76,North,360,4.0,4.0,70,0.00,,SKC,0.00,VWS V14.00,2013-04-19 12:45:00,
2013-04-19 08:50:00,69.6,59.4,29.76,North,360,4.0,4.0,70,0.00,,SKC,0.00,VWS V14.00,2013-04-19 12:50:00,
2013-04-19 08:55:00,69.6,59.4,29.75,North,360,4.0,4.0,70,0.00,,SKC,0.00,VWS V14.00,2013-04-19 12:55:00,
2013-04-19 09:00:00,69.6,59.4,29.75,North,360,4.0,4.0,70,0.00,,SKC,0.00,VWS V14.00,2013-04-19 13:00:00,
2013-04-19 09:05:00,69.6,59.4,29.75,North,360,4.0,4.0,70,0.00,,SKC,0.00,VWS V14.00,2013-04-19 13:05:00,
2013-04-19 09:10:00,69.6,59.4,29.74,North,360,4.0,4.0,70,0.00,,SKC,0.00,VWS V14.00,2013-04-19 13:10:00,
2013-04-19 09:15:00,69.6,59.4,29.74,North,360,4.0,4.0,70,0.00,,SKC,0.00,VWS V14.00,2013-04-19 13:15:00,
2013-04-19 09:20:00,69.6,59.4,29.74,North,360,4.0,4.0,70,0.00,,SKC,0.00,VWS V14.00,2013-04-19 13:20:00,
2013-04-19 09:25:00,69.6,59.4,29.79,North,360,4.0,4.0,70,0.00,,SKC,0.00,VWS V14.00,2013-04-19 13:25:00,
2013-04-19 09:30:00,69.6,59.4,29.79,North,360,4.0,4.0,70,0.00,,SKC,0.00,VWS V14.00,2013-04-19 13:30:00,
2013-04-19 09:35:00,69.6,59.4,29.79,North,360,4.0,4.0,70,0.00,,SKC,0.00,VWS V14.00,2013-04-19 13:35:00,
2013-04-19 09:40:00,69.6,59.4,29.78,North,360,4.0,4.0,70,0.00,,SKC,0.00,VWS V14.00,2013-04-19 13:40:00,
2013-04-19 09:45:00,69.6,59.4,29.78,North,360,4.0,4.0,70,0.00,,SKC,0.00,VWS V14.00,2013-04-19 13:45:00,
2013-04-19 09:50:00,69.6,59.4,29.78,North,360,4.0,4.0,70,0.00,,SKC,0.00,VWS V14.00,2013-04-19 13:50:00,
2013-04-19 09:55:00,69.6,59.4,29.78,North,360,4.0,4.0,70,0.00,,SKC,0.00,VWS V14.00,2013-04-19 13:55:00,
2013-04-19 10:00:00,69.6,59.4,29.78,North,360,4.0,4.0,70,0.00,,SKC,0.00,VWS V14.00,2013-04-19 14:00:00,
2013-04-19 10:05:00,69.6,59.4,29.78,North,360,4.0,4.0,70,0.00,,SKC,0.00,VWS V14.00,2013-04-19 14:05:00,
2013-04-19 10:10:00,69.6,59.4,29.77,North,360,4.0,4.0,70,0.00,,SKC,0.00,VWS V14.00,2013-04-19 14:10:00,
2013-04-19 10:15:00,69.6,59.4,29.77,North,360,4.0,4.0,70,0.00,,SKC,0.00,VWS V14.00,2013-04-19 14:15:00,
2013-04-19 10:20:00,69.6,59.4,29.77,North,360,4.0,4.0,70,0.00,,SKC,0.00,VWS V14.00,2013-04-19 14:20:00,
2013-04-19 10:25:00,69.6,59.4,29.72,North,360,4.0,4.0,70,0.00,,SKC,0.00,VWS V14.00,2013-04-19 14:25:00,
2013-04-19 10:30:00,69.6,59.4,29.72,North,360,4.0,4.0,70,0.00,,SKC,0.00,VWS V14.00,2013-04-19 14:30:00,
2013-04-19 10:35:00,69.6,59.4,29.72,North,360,4.0,4.0,70,0.00,,SKC,0.00,VWS V14.00,2013-04-19 14:35:00,
2013-04-19 10:40:00,69.6,59.4,29.71,North,360,4.0,4.0,70,0.00,,SKC,0.00,VWS V14.00,2013-04-19 14:40:00,
2013-04-19 10:45:00,69.6,59.4,29.71,North,360,4.0,4.0,70,0.00,,SKC,0.00,VWS V14.00,2013-04-19 14:45:00,
2013-04-19 10:50:00,69.6,59.4,29.71,North,360,4.0,4.0,70,0.00,,SKC,0.00,VWS V14.00,2013-04-19 14:50:00,
2013-04-19 10:55:00,69.6,59.4,29.70,North,360,4.0,4.0,70,0.00,,SKC,0.00,VWS V14.00,2013-04-19 14:55:00,
2013-04-19 11:00:00,69.6,59.4,29.70,North,360,4.0,4.0,70,0.00,,SKC,0.00,VWS V14.00,2013-04-19 15:00:00,
2013-04-19 11:05:00,69.6,59.4,29.70,North,360,4.0,4.0,70,0.00,,SKC,0.00,VWS V14.00,2013-04-19 15:05:00,
2013-04-19 11:10:00,69.6,59.4,29.73,North,360,4.0,4.0,70,0.00,,SKC,0.00,VWS V14.00,2013-04-19 15:10:00,
2013-04-19 11:15:00,69.6,59.4,29.73,North,360,4.0,4.0,70,0.00,,SKC,0.00,VWS V14.00,2013-04-19 15:15:00,
2013-04-19 11:20:00,69.6,59.4,29.73,North,360,4.0,4.0,70,0.00,,SKC,0.00,VWS V14.00,2013-04-19 15:20:00,
2013-04-19 11:25:00,69.6,59.4,29.77,North,360,4.0,4.0,70,0.00,,SKC,0.00,VWS V14.00,2013-04-19 15:25:00,
2013-04-19 11:30:00,69.6,59.4,29.77,North,360,4.0,4.0,70,0.00,,SKC,0.00,VWS V14.00,2013-04-19 15:30:00,
2013-04-19 11:35:00,59.5,49.7,29.77,North,360,17.0,20.0,70,0.00,,SKC,0.00,VWS V14.00,2013-04-19 15:35:00,
2013-04-19 11:40:00,59.2,53.0,29.81,North,360,11.0,23.0,80,0.45,,SKC,0.45,VWS V14.00,2013-04-19 15:40:00,
2013-04-19 11:45:00,59.0,52.8,29.81,North,360,5.0,23.0,80,0.45,,SKC,0.45,VWS V14.00,2013-04-19 15:45:00,
2013-04-19 11:50:00,59.0,52.8,29.81,North,360,5.0,5.0,80,0.45,,SKC,0.45,VWS V14.00,2013-04-19 15:50:00,
2013-04-19 11:55:00,59.0,52.8,29.81,North,360,5.0,5.0,80,0.45,,SKC,0.45,VWS V14.00,2013-04-19 15:55:00,
2013-04-19 12:00:00,59.0,52.8,29.81,North,360,5.0,5.0,80,0.45,,SKC,0.45,VWS V14.00,2013-04-19 16:00:00,
2013-04-19 12:05:00,59.0,52.8,29.81,North,360,5.0,5.0,80,0.45,,SKC,0.45,VWS V14.00,2013-04-19 16:05:00,
2013-04-19 12:10:00,59.0,52.8,29.79,North,360,5.0,5.0,80,0.45,,SKC,0.45,VWS V14.00,2013-04-19 16:10:00,
2013-04-19 12:15:00,59.0,52.8,29.79,North,360,5.0,5.0,80,0.45,,SKC,0.45,VWS V14.00,2013-04-19 16:15:00,
2013-04-19 12:20:00,59.0,52.8,29.79,North,360,5.0,5.0,80,0.45,,SKC,0.45,VWS V14.00,2013-04-19 16:20:00,
2013-04-19 12:25:00,59.0,52.8,29.84,North,360,5.0,5.0,80,0.45,,SKC,0.45,VWS V14.00,2013-04-19 16:25:00,
2013-04-19 12:30:00,56.7,50.6,29.84,North,360,9.0,9.0,80,0.45,,SKC,0.45,VWS V14.00,2013-04-19 16:30:00,
2013-04-19 12:35:00,55.8,49.7,29.84,North,360,9.0,21.0,80,0.55,,SKC,0.55,VWS V14.00,2013-04-19 16:35:00,
2013-04-19 12:40:00,55.8,49.7,29.84,North,360,9.0,9.0,80,0.11,,SKC,0.55,VWS V14.00,2013-04-19 16:40:00,
2013-04-19 12:45:00,55.1,49.0,29.84,North,360,9.0,21.0,80,0.13,,SKC,0.57,VWS V14.00,2013-04-19 16:45:00,
2013-04-19 12:50:00,54.8,48.8,29.84,North,360,12.0,19.0,80,0.12,,SKC,0.57,VWS V14.00,2013-04-19 16:50:00,
2013-04-19 12:55:00,54.4,48.0,29.83,North,360,14.0,26.0,79,0.13,,SKC,0.58,VWS V14.00,2013-04-19 16:55:00,
2013-04-19 13:00:00,54.2,48.2,29.83,North,360,7.0,15.0,80,0.14,,SKC,0.59,VWS V14.00,2013-04-19 17:00:00,
2013-04-19 13:05:00,54.1,48.1,29.83,North,360,9.0,18.0,80,0.14,,SKC,0.59,VWS V14.00,2013-04-19 17:05:00,
2013-04-19 13:10:00,53.9,47.9,29.83,North,360,13.0,19.0,80,0.15,,SKC,0.60,VWS V14.00,2013-04-19 17:10:00,
2013-04-19 13:15:00,53.8,47.8,29.83,North,360,15.0,21.0,80,0.15,,SKC,0.60,VWS V14.00,2013-04-19 17:15:00,
2013-04-19 13:20:00,53.8,47.8,29.83,North,360,13.0,16.0,80,0.16,,SKC,0.61,VWS V14.00,2013-04-19 17:20:00,
2013-04-19 13:25:00,53.6,47.9,29.86,North,360,6.0,17.0,81,0.16,,SKC,0.61,VWS V14.00,2013-04-19 17:25:00,
2013-04-19 13:30:00,53.6,47.9,29.86,North,360,5.0,15.0,81,0.16,,SKC,0.61,VWS V14.00,2013-04-19 17:30:00,
2013-04-19 13:35:00,53.6,48.2,29.86,North,360,16.0,18.0,82,0.17,,SKC,0.62,VWS V14.00,2013-04-19 17:35:00,
2013-04-19 13:40:00,53.8,48.4,29.86,North,360,12.0,12.0,82,0.07,,SKC,0.62,VWS V14.00,2013-04-19 17:40:00,
2013-04-19 13:45:00,53.8,48.4,29.86,North,360,10.0,12.0,82,0.08,,SKC,0.63,VWS V14.00,2013-04-19 17:45:00,
2013-04-19 13:50:00,53.6,48.2,29.86,North,360,10.0,18.0,82,0.06,,SKC,0.63,VWS V14.00,2013-04-19 17:50:00,
2013-04-19 13:55:00,53.6,48.2,29.87,North,360,6.0,18.0,82,0.06,,SKC,0.63,VWS V14.00,2013-04-19 17:55:00,
2013-04-19 14:00:00,53.6,48.2,29.87,North,360,6.0,9.0,82,0.05,,SKC,0.63,VWS V14.00,2013-04-19 18:00:00,
2013-04-19 14:05:00,53.8,48.4,29.87,North,360,6.0,9.0,82,0.05,,SKC,0.63,VWS V14.00,2013-04-19 18:05:00,
2013-04-19 14:10:00,53.8,48.4,29.87,North,360,6.0,9.0,82,0.05,,SKC,0.63,VWS V14.00,2013-04-19 18:10:00,
2013-04-19 14:15:00,53.8,48.4,29.87,North,360,6.0,9.0,82,0.05,,SKC,0.63,VWS V14.00,2013-04-19 18:15:00,
2013-04-19 14:20:00,53.8,48.4,29.87,North,360,6.0,9.0,82,0.05,,SKC,0.63,VWS V14.00,2013-04-19 18:20:00,
2013-04-19 14:25:00,53.8,48.4,29.87,North,360,6.0,9.0,82,0.05,,SKC,0.63,VWS V14.00,2013-04-19 18:25:00,
2013-04-19 14:30:00,53.8,48.4,29.87,North,360,6.0,9.0,82,0.05,,SKC,0.63,VWS V14.00,2013-04-19 18:30:00,
2013-04-19 14:35:00,53.8,48.4,29.87,North,360,6.0,9.0,82,0.05,,SKC,0.63,VWS V14.00,2013-04-19 18:35:00,
2013-04-19 14:40:00,53.8,48.4,29.87,North,360,6.0,9.0,82,0.05,,SKC,0.63,VWS V14.00,2013-04-19 18:40:00,
2013-04-19 14:45:00,53.8,48.4,29.87,North,360,6.0,9.0,82,0.05,,SKC,0.63,VWS V14.00,2013-04-19 18:45:00,
2013-04-19 14:50:00,53.8,48.4,29.87,North,360,6.0,9.0,82,0.05,,SKC,0.63,VWS V14.00,2013-04-19 18:50:00,
2013-04-19 14:55:00,53.8,47.1,29.85,North,360,10.0,15.0,78,0.09,,SKC,0.67,VWS V14.00,2013-04-19 18:55:00,
2013-04-19 15:00:00,53.6,46.2,29.85,North,360,5.0,15.0,76,0.04,,SKC,0.67,VWS V14.00,2013-04-19 19:00:00,
2013-04-19 15:05:00,53.5,46.1,29.85,North,360,9.0,15.0,76,0.04,,SKC,0.67,VWS V14.00,2013-04-19 19:05:00,
2013-04-19 15:10:00,53.5,46.1,29.84,North,360,4.0,7.0,76,0.00,,SKC,0.67,VWS V14.00,2013-04-19 19:10:00,
2013-04-19 15:15:00,53.6,46.2,29.84,North,360,6.0,13.0,76,0.01,,SKC,0.68,VWS V14.00,2013-04-19 19:15:00,
2013-04-19 15:20:00,53.6,45.9,29.84,North,360,9.0,11.0,75,0.01,,SKC,0.68,VWS V14.00,2013-04-19 19:20:00,
2013-04-19 15:25:00,53.6,45.9,29.82,North,360,14.0,20.0,75,0.01,,SKC,0.68,VWS V14.00,2013-04-19 19:25:00,
2013-04-19 15:30:00,53.5,45.4,29.82,North,360,7.0,17.0,74,0.01,,SKC,0.68,VWS V14.00,2013-04-19 19:30:00,
2013-04-19 15:35:00,53.5,45.8,29.82,North,360,10.0,17.0,75,0.01,,SKC,0.68,VWS V14.00,2013-04-19 19:35:00,
2013-04-19 15:40:00,53.5,45.4,29.82,North,360,9.0,17.0,74,0.02,,SKC,0.69,VWS V14.00,2013-04-19 19:40:00,
2013-04-19 15:45:00,53.3,44.9,29.82,North,360,15.0,17.0,73,0.02,,SKC,0.69,VWS V14.00,2013-04-19 19:45:00,
2013-04-19 15:50:00,53.3,44.9,29.82,North,360,7.0,7.0,73,0.02,,SKC,0.69,VWS V14.00,2013-04-19 19:50:00,
2013-04-19 15:55:00,53.3,44.9,29.85,North,360,7.0,7.0,73,0.02,,SKC,0.69,VWS V14.00,2013-04-19 19:55:00,
2013-04-19 16:00:00,53.3,44.9,29.85,North,360,7.0,7.0,73,0.02,,SKC,0.69,VWS V14.00,2013-04-19 20:00:00,
2013-04-19 16:05:00,53.3,44.9,29.85,North,360,7.0,7.0,73,0.02,,SKC,0.69,VWS V14.00,2013-04-19 20:05:00,
2013-04-19 16:10:00,53.3,44.9,29.83,North,360,7.0,7.0,73,0.02,,SKC,0.69,VWS V14.00,2013-04-19 20:10:00,
2013-04-19 16:15:00,53.3,44.9,29.83,North,360,7.0,7.0,73,0.02,,SKC,0.69,VWS V14.00,2013-04-19 20:15:00,
2013-04-19 16:20:00,53.3,44.9,29.83,North,360,7.0,7.0,73,0.01,,SKC,0.69,VWS V14.00,2013-04-19 20:20:00,
2013-04-19 16:25:00,53.3,44.9,29.81,North,360,7.0,7.0,73,0.01,,SKC,0.69,VWS V14.00,2013-04-19 20:25:00,
2013-04-19 16:30:00,53.3,44.9,29.81,North,360,7.0,7.0,73,0.01,,SKC,0.69,VWS V14.00,2013-04-19 20:30:00,
2013-04-19 16:35:00,53.3,44.9,29.81,North,360,7.0,7.0,73,0.01,,SKC,0.69,VWS V14.00,2013-04-19 20:35:00,
2013-04-19 16:40:00,53.3,44.9,29.84,North,360,7.0,7.0,73,0.00,,SKC,0.69,VWS V14.00,2013-04-19 20:40:00,
2013-04-19 16:45:00,53.3,44.9,29.84,North,360,7.0,7.0,73,0.00,,SKC,0.69,VWS V14.00,2013-04-19 20:45:00,
2013-04-19 16:50:00,53.3,44.9,29.84,North,360,7.0,7.0,73,0.00,,SKC,0.69,VWS V14.00,2013-04-19 20:50:00,
2013-04-19 16:55:00,53.3,44.9,29.86,North,360,7.0,7.0,73,0.00,,SKC,0.69,VWS V14.00,2013-04-19 20:55:00,
2013-04-19 17:00:00,53.3,44.9,29.86,North,360,7.0,7.0,73,0.00,,SKC,0.69,VWS V14.00,2013-04-19 21:00:00,
2013-04-19 17:05:00,53.3,44.9,29.86,North,360,7.0,7.0,73,0.00,,SKC,0.69,VWS V14.00,2013-04-19 21:05:00,
2013-04-19 17:10:00,53.3,44.9,29.83,North,360,7.0,7.0,73,0.00,,SKC,0.69,VWS V14.00,2013-04-19 21:10:00,
2013-04-19 17:15:00,53.3,44.9,29.83,North,360,7.0,7.0,73,0.00,,SKC,0.69,VWS V14.00,2013-04-19 21:15:00,
2013-04-19 17:20:00,53.3,44.9,29.83,North,360,7.0,7.0,73,0.00,,SKC,0.69,VWS V14.00,2013-04-19 21:20:00,
2013-04-19 17:25:00,51.7,43.3,29.87,North,360,5.0,9.0,73,0.00,,SKC,0.69,VWS V14.00,2013-04-19 21:25:00,
2013-04-19 17:30:00,51.7,43.3,29.87,North,360,7.0,11.0,73,0.00,,SKC,0.69,VWS V14.00,2013-04-19 21:30:00,
2013-04-19 17:35:00,51.7,43.3,29.87,North,360,5.0,14.0,73,0.00,,SKC,0.69,VWS V14.00,2013-04-19 21:35:00,
2013-04-19 17:40:00,51.9,43.2,29.86,North,360,0.0,5.0,72,0.00,,SKC,0.69,VWS V14.00,2013-04-19 21:40:00,
2013-04-19 17:45:00,52.3,43.2,29.86,North,360,7.0,14.0,71,0.00,,SKC,0.69,VWS V14.00,2013-04-19 21:45:00,
2013-04-19 17:50:00,52.4,43.3,29.86,North,360,7.0,10.0,71,0.01,,SKC,0.70,VWS V14.00,2013-04-19 21:50:00,
2013-04-19 17:55:00,52.6,43.1,29.86,North,360,6.0,15.0,70,0.01,,SKC,0.70,VWS V14.00,2013-04-19 21:55:00,
2013-04-19 18:00:00,52.4,42.5,29.86,North,360,10.0,12.0,69,0.01,,SKC,0.70,VWS V14.00,2013-04-19 22:00:00,
2013-04-19 18:05:00,52.6,43.1,29.86,North,360,9.0,12.0,70,0.01,,SKC,0.70,VWS V14.00,2013-04-19 22:05:00,
2013-04-19 18:10:00,52.4,42.2,29.88,North,360,3.0,13.0,68,0.01,,SKC,0.70,VWS V14.00,2013-04-19 22:10:00,
2013-04-19 18:15:00,52.4,42.2,29.88,North,360,0.0,13.0,68,0.01,,SKC,0.70,VWS V14.00,2013-04-19 22:15:00,
2013-04-19 18:20:00,52.4,42.2,29.88,North,360,3.0,3.0,68,0.01,,SKC,0.70,VWS V14.00,2013-04-19 22:20:00,
2013-04-19 18:25:00,52.4,42.2,29.85,North,360,3.0,3.0,68,0.01,,SKC,0.70,VWS V14.00,2013-04-19 22:25:00,
2013-04-19 18:30:00,52.4,42.2,29.85,North,360,3.0,3.0,68,0.01,,SKC,0.70,VWS V14.00,2013-04-19 22:30:00,
2013-04-19 18:35:00,52.4,42.2,29.85,North,360,3.0,3.0,68,0.01,,SKC,0.70,VWS V14.00,2013-04-19 22:35:00,
2013-04-19 18:40:00,52.4,42.2,29.84,North,360,3.0,3.0,68,0.01,,SKC,0.70,VWS V14.00,2013-04-19 22:40:00,
2013-04-19 18:45:00,52.4,42.2,29.84,North,360,3.0,3.0,68,0.01,,SKC,0.70,VWS V14.00,2013-04-19 22:45:00,
2013-04-19 18:50:00,52.4,42.2,29.84,North,360,3.0,3.0,68,0.00,,SKC,0.70,VWS V14.00,2013-04-19 22:50:00,
2013-04-19 18:55:00,52.4,42.2,29.82,North,360,3.0,3.0,68,0.00,,SKC,0.70,VWS V14.00,2013-04-19 22:55:00,
2013-04-19 19:00:00,52.1,41.9,29.82,North,360,3.0,7.0,68,0.01,,SKC,0.71,VWS V14.00,2013-04-19 23:00:00,
2013-04-19 19:05:00,52.3,42.5,29.82,North,360,0.0,11.0,69,0.01,,SKC,0.71,VWS V14.00,2013-04-19 23:05:00,
2013-04-19 19:10:00,52.3,42.1,29.85,North,360,6.0,15.0,68,0.01,,SKC,0.71,VWS V14.00,2013-04-19 23:10:00,
2013-04-19 19:15:00,52.3,42.1,29.85,North,360,5.0,15.0,68,0.01,,SKC,0.71,VWS V14.00,2013-04-19 23:15:00,
2013-04-19 19:20:00,52.1,41.9,29.85,North,360,4.0,13.0,68,0.01,,SKC,0.71,VWS V14.00,2013-04-19 23:20:00,
2013-04-19 19:25:00,52.1,41.9,29.88,North,360,5.0,13.0,68,0.01,,SKC,0.71,VWS V14.00,2013-04-19 23:25:00,
2013-04-19 19:30:00,52.0,41.8,29.88,North,360,5.0,13.0,68,0.01,,SKC,0.71,VWS V14.00,2013-04-19 23:30:00,
2013-04-19 19:35:00,52.0,42.2,29.88,North,360,6.0,13.0,69,0.01,,SKC,0.71,VWS V14.00,2013-04-19 23:35:00,
2013-04-19 19:40:00,52.0,42.2,29.86,North,360,6.0,6.0,69,0.01,,SKC,0.71,VWS V14.00,2013-04-19 23:40:00,
2013-04-19 19:45:00,51.7,41.9,29.86,North,360,5.0,14.0,69,0.01,,SKC,0.71,VWS V14.00,2013-04-19 23:45:00,
2013-04-19 19:50:00,51.6,41.8,29.86,North,360,9.0,9.0,69,0.01,,SKC,0.71,VWS V14.00,2013-04-19 23:50:00,
2013-04-19 19:55:00,51.6,41.8,29.88,North,360,4.0,11.0,69,0.01,,SKC,0.71,VWS V14.00,2013-04-19 23:55:00,
2013-04-19 20:00:00,51.6,41.8,29.88,North,360,9.0,9.0,69,0.01,,SKC,0.71,VWS V14.00,2013-04-20 00:00:00,
2013-04-19 20:05:00,51.6,41.4,29.88,North,360,6.0,11.0,68,0.01,,SKC,0.71,VWS V14.00,2013-04-20 00:05:00,
2013-04-19 20:10:00,51.6,41.0,29.88,North,360,9.0,10.0,67,0.00,,SKC,0.71,VWS V14.00,2013-04-20 00:10:00,
2013-04-19 20:15:00,51.4,40.0,29.88,North,360,8.0,13.0,65,0.00,,SKC,0.71,VWS V14.00,2013-04-20 00:15:00,
2013-04-19 20:20:00,51.4,40.0,29.88,North,360,6.0,6.0,65,0.00,,SKC,0.71,VWS V14.00,2013-04-20 00:20:00,
2013-04-19 20:25:00,51.4,38.8,29.90,North,360,6.0,14.0,62,0.01,,SKC,0.72,VWS V14.00,2013-04-20 00:25:00,
2013-04-19 20:30:00,51.4,38.8,29.90,North,360,6.0,6.0,62,0.01,,SKC,0.72,VWS V14.00,2013-04-20 00:30:00,
2013-04-19 20:35:00,51.3,38.7,29.90,North,360,8.0,12.0,62,0.01,,SKC,0.72,VWS V14.00,2013-04-20 00:35:00,
2013-04-19 20:40:00,51.3,39.2,29.91,North,360,6.0,9.0,63,0.01,,SKC,0.72,VWS V14.00,2013-04-20 00:40:00,
2013-04-19 20:45:00,51.1,39.0,29.91,North,360,4.0,9.0,63,0.01,,SKC,0.72,VWS V14.00,2013-04-20 00:45:00,
2013-04-19 20:50:00,51.0,38.9,29.91,North,360,5.0,10.0,63,0.01,,SKC,0.72,VWS V14.00,2013-04-20 00:50:00,
2013-04-19 20:54:00,51.0,38.9,29.92,North,360,7.0,10.0,63,0.01,,SKC,0.72,VWS V14.00,2013-04-20 00:54:00,
2013-04-19 20:59:00,50.8,38.7,29.92,North,360,9.0,11.0,63,0.01,,SKC,0.72,VWS V14.00,2013-04-20 00:59:00,
2013-04-19 21:00:00,51.6,41.4,29.88,North,360,6.0,11.0,68,0.01,,SKC,0.71,VWS V14.00,2013-04-20 01:00:00,
2013-04-19 21:04:00,50.7,39.0,29.92,North,360,4.0,11.0,64,0.01,,SKC,0.72,VWS V14.00,2013-04-20 01:04:00,
2013-04-19 21:09:00,50.7,38.6,29.93,North,360,6.0,10.0,63,0.01,,SKC,0.72,VWS V14.00,2013-04-20 01:09:00,
2013-04-19 21:10:00,51.4,40.0,29.88,North,360,4.0,13.0,65,0.00,,SKC,0.71,VWS V14.00,2013-04-20 01:10:00,
2013-04-19 21:14:00,50.5,38.8,29.93,North,360,6.0,12.0,64,0.01,,SKC,0.72,VWS V14.00,2013-04-20 01:14:00,
2013-04-19 21:19:00,50.5,38.4,29.93,North,360,6.0,7.0,63,0.01,,SKC,0.72,VWS V14.00,2013-04-20 01:19:00,
2013-04-19 21:20:00,51.4,38.8,29.90,North,360,6.0,14.0,62,0.01,,SKC,0.72,VWS V14.00,2013-04-20 01:20:00,
2013-04-19 21:24:00,50.4,38.3,29.96,North,360,7.0,10.0,63,0.01,,SKC,0.72,VWS V14.00,2013-04-20 01:24:00,
2013-04-19 21:29:00,50.4,38.3,29.96,North,360,7.0,12.0,63,0.00,,SKC,0.72,VWS V14.00,2013-04-20 01:29:00,
2013-04-19 21:30:00,51.3,38.7,29.91,North,360,2.0,12.0,62,0.01,,SKC,0.72,VWS V14.00,2013-04-20 01:30:00,
2013-04-19 21:34:00,50.4,38.3,29.96,North,360,7.0,15.0,63,0.00,,SKC,0.72,VWS V14.00,2013-04-20 01:34:00,
2013-04-19 21:39:00,50.4,38.3,29.97,North,360,11.0,11.0,63,0.00,,SKC,0.72,VWS V14.00,2013-04-20 01:39:00,
2013-04-19 21:40:00,51.1,39.0,29.91,North,360,6.0,9.0,63,0.01,,SKC,0.72,VWS V14.00,2013-04-20 01:40:00,
2013-04-19 21:44:00,50.2,37.7,29.97,North,360,11.0,13.0,62,0.00,,SKC,0.72,VWS V14.00,2013-04-20 01:44:00,
2013-04-19 21:49:00,50.2,37.7,29.97,North,360,11.0,13.0,62,0.00,,SKC,0.72,VWS V14.00,2013-04-20 01:49:00,
2013-04-19 21:50:00,50.8,38.7,29.92,North,360,6.0,12.0,63,0.01,,SKC,0.72,VWS V14.00,2013-04-20 01:50:00,
2013-04-19 21:54:00,50.2,37.7,29.97,North,360,11.0,13.0,62,0.00,,SKC,0.72,VWS V14.00,2013-04-20 01:54:00,
2013-04-19 21:59:00,50.2,37.7,29.97,North,360,11.0,13.0,62,0.00,,SKC,0.72,VWS V14.00,2013-04-20 01:59:00,
2013-04-19 22:00:00,50.7,38.6,29.93,North,360,8.0,11.0,63,0.01,,SKC,0.72,VWS V14.00,2013-04-20 02:00:00,
2013-04-19 22:04:00,50.2,37.7,29.97,North,360,11.0,13.0,62,0.00,,SKC,0.72,VWS V14.00,2013-04-20 02:04:00,
2013-04-19 22:09:00,50.2,37.7,29.97,North,360,11.0,13.0,62,0.00,,SKC,0.72,VWS V14.00,2013-04-20 02:09:00,
2013-04-19 22:10:00,50.5,38.4,29.93,North,360,7.0,12.0,63,0.01,,SKC,0.72,VWS V14.00,2013-04-20 02:10:00,
2013-04-19 22:14:00,50.2,37.7,29.97,North,360,11.0,13.0,62,0.00,,SKC,0.72,VWS V14.00,2013-04-20 02:14:00,
2013-04-19 22:19:00,50.2,37.7,29.97,North,360,11.0,13.0,62,0.00,,SKC,0.72,VWS V14.00,2013-04-20 02:19:00,
2013-04-19 22:20:00,50.4,38.3,29.96,North,360,7.0,12.0,63,0.01,,SKC,0.72,VWS V14.00,2013-04-20 02:20:00,
2013-04-19 22:24:00,50.2,37.7,29.97,North,360,11.0,13.0,62,0.00,,SKC,0.72,VWS V14.00,2013-04-20 02:24:00,
2013-04-19 22:29:00,50.2,37.7,29.97,North,360,11.0,13.0,62,0.00,,SKC,0.72,VWS V14.00,2013-04-20 02:29:00,
2013-04-19 22:30:00,50.4,38.3,29.97,North,360,10.0,15.0,63,0.00,,SKC,0.72,VWS V14.00,2013-04-20 02:30:00,
2013-04-19 22:34:00,50.2,37.7,29.97,North,360,11.0,13.0,62,0.00,,SKC,0.72,VWS V14.00,2013-04-20 02:34:00,
2013-04-19 22:39:00,48.9,33.9,29.99,North,360,11.0,16.0,56,0.01,,SKC,0.73,VWS V14.00,2013-04-20 02:39:00,
2013-04-19 22:44:00,48.7,33.7,29.99,North,360,5.0,16.0,56,0.01,,SKC,0.73,VWS V14.00,2013-04-20 02:44:00,
2013-04-19 22:49:00,48.6,33.6,29.99,North,360,7.0,12.0,56,0.00,,SKC,0.73,VWS V14.00,2013-04-20 02:49:00,
2013-04-19 22:54:00,48.6,33.6,29.99,North,360,10.0,15.0,56,0.00,,SKC,0.73,VWS V14.00,2013-04-20 02:54:00,
2013-04-19 22:59:00,48.5,34.0,29.99,North,360,12.0,18.0,57,0.00,,SKC,0.73,VWS V14.00,2013-04-20 02:59:00,
2013-04-19 23:04:00,48.3,33.8,29.99,North,360,4.0,18.0,57,0.00,,SKC,0.73,VWS V14.00,2013-04-20 03:04:00,
2013-04-19 23:09:00,48.2,33.7,30.00,North,360,9.0,11.0,57,0.00,,SKC,0.00,VWS V14.00,2013-04-20 03:09:00,
2013-04-19 23:14:00,48.2,33.7,30.00,North,360,9.0,11.0,57,0.00,,SKC,0.00,VWS V14.00,2013-04-20 03:14:00,
2013-04-19 23:19:00,48.2,33.7,30.00,North,360,9.0,9.0,57,0.00,,SKC,0.00,VWS V14.00,2013-04-20 03:19:00,
2013-04-19 23:24:00,48.2,33.7,29.98,North,360,9.0,9.0,57,0.00,,SKC,0.00,VWS V14.00,2013-04-20 03:24:00,
2013-04-19 23:29:00,48.2,33.7,29.98,North,360,9.0,9.0,57,0.00,,SKC,0.00,VWS V14.00,2013-04-20 03:29:00,
2013-04-19 23:30:00,48.9,33.9,29.99,North,360,10.0,13.0,56,0.01,,SKC,0.73,VWS V14.00,2013-04-20 03:30:00,
2013-04-19 23:34:00,48.2,33.7,29.98,North,360,9.0,9.0,57,0.00,,SKC,0.00,VWS V14.00,2013-04-20 03:34:00,
2013-04-19 23:39:00,48.2,33.7,29.98,North,360,9.0,9.0,57,0.00,,SKC,0.00,VWS V14.00,2013-04-20 03:39:00,
2013-04-19 23:40:00,48.6,33.6,29.99,North,360,12.0,16.0,56,0.01,,SKC,0.73,VWS V14.00,2013-04-20 03:40:00,
2013-04-19 23:44:00,48.2,33.7,29.98,North,360,9.0,9.0,57,0.00,,SKC,0.00,VWS V14.00,2013-04-20 03:44:00,
2013-04-19 23:49:00,48.2,33.7,29.98,North,360,9.0,9.0,57,0.00,,SKC,0.00,VWS V14.00,2013-04-20 03:49:00,
2013-04-19 23:50:00,48.5,33.5,29.99,North,360,11.0,15.0,56,0.00,,SKC,0.73,VWS V14.00,2013-04-20 03:50:00,
2013-04-19 23:54:00,48.2,33.7,29.99,North,360,9.0,9.0,57,0.00,,SKC,0.00,VWS V14.00,2013-04-20 03:54:00,
2013-04-19 23:59:00,48.2,33.7,29.99,North,360,9.0,9.0,57,0.00,,SKC,0.00,VWS V14.00,2013-04-20 03:59:00,